Probability
0 0 0 0 0 0 0 0 0 0 0 0 0 0 0 0 0 0 0 0 0 0 0 0 0 0 0 0 0 0 0 0 0 0 0 0 0 0 0 0 0 0 0
0 0 0 0 0 0 0 0 0 0 0 0 0 0 0 0 0 0 0 0 0 0 0 0 0 0 0 0 0 0 0 0 0 0 0 0 0 0 0 0 0 0 0
0 0 0 0 0 0 0 0 0 0 0 0 0 0 0 0 0 0 0 0 0 0 0 0 0 0 0 0 0 0 0 0 0 0 0 0 0 0 0 0 0 0 0
0 0 0 0 0 0 0 0 0 0 0 0 0 0 0 0 0 0 0 0 0 0 0 0 0 0 0 0 0 0 0 0 0 0 0 0 0 0 1 0 0 0 0
0 0 0 0 0 0 0 0 0 0 0 0 0 0 0 0 0 0 0 0 0 0 0 0 0 0 0 0 0 0 0 0 0 0 0 0 0 0 0 0 0 0 0
0 0 0 0 0 0 0 0 0 0 0 0 0 0 0 0 0 0 0 0 0 0 0 0 0 0 0 0 0 0 0 0 0 0 0 0 0 0 0 0 0 0 0
0 0 0 0 0 0 0 0 0 0 0 0 0 0 0 0 0 0 0 0 0 0 0 0 0 0 0 0 0 0 0 0 0 0 0 0 0 0 0 0 0 0 0
0 0 0 0 0 0 0 0 0 0 0 0 0 0 0 0 0 0 0 0 0 0 0 0 0 0 0 0 0 0 0 0 0 0 0 0 0 0 0 0 0 0 0
0 0 0 0 0 0 0 0 0 0 0 0 0 0 0 0 0 0 0 0 0 0 0 0 0 0 0 0 0 0 0 0 0 0 0 0 0 0 0 0 0 0 0
0 0 0 0 0 0 0 0 0 0 0 0 0 0 0 0 0 0 0 0 0 0 0 0 0 0 0 0 0 0 0 0 0 0 0 0 0 0 0 0 0 0 0
0 0 0 0 0 0 0 0 0 0 0 0 0 0 0 0 0 0 0 0 0 0 0 0 0 0 0 0 0 0 0 0 0 0 0 0 0 0 0 0 0 0 0
0 0 0 0 0 0 0 0 0 0 0 0 0 0 0 0 0 0 0 0 0 0 0 0 0 0 0 0 0 0 0 0 0 0 0 0 0 0 0 0 0 0 0
0 0 0 0 0 0 0 0 0 0 0 0 0 0 0 0 0 0 0 0 0 0 0 0 0 0 0 0 0 0 0 0 0 0 0 0 0 0 0 0 0 0 0
0 0 0 0 0 0 0 0 0 0 0 0 0 0 0 0 0 0 0 0 0 0 0 0 0 0 0 0 0 0 0 0 0 0 0 0 0 0 0 0 0 0 0
0 0 0 0 0 0 0 0 0 0 0 0 0 0 0 0 0 0 0 0 0 0 0 0 0 0 0 0 0 0 0 0 0 0 0 0 0 0 0 0 0 0 0
0 0 0 0 0 0 0 0 0 0 0 0 0 0 0 0 0 0 0 0 0 0 0 0 0 0 0 0 0 0 0 0 0 0 0 0 0 0 0 0 0 0 0
0 0 0 0 0 0 0 0 0 0 0 0 0 0 0 0 0 0 0 0 0 0 0 0 0 0 0 0 0 0 0 0 0 0 0 0 0 0 0 0 0 0 0
0 0 0 0 0 0 0 0 0 0 0 0 0 0 0 0 0 0 0 0 0 0 0 0 0 0 0 0 0 0 0 0 0 0 0 0 0 0 0 0 0 0 0
0 0 0 0 0 0 0 0 0 0 0 0 0 0 0 0 0 0 0 0 0 0 0 0 0 0 0 0 0 0 0 0 0 0 0 0 0 0 0 0 0 0 0
0 0 0 0 0 0 0 0 0 0 0 0 0 0 0 0 0 0 0 0 0 0 0 0 0 0 0 0 0 0 0 0 0 0 0 0 0 0 0 0 0 0 0
0 0 0 0 0 0 0 0 0 0 0 0 0 0 0 0 0 0 0 0 0 0 0 0 0 0 0 0 0 0 0 0 0 0 0 0 0 0 0 0 0 0 0
0 0 0 0 0 0 0 0 0 0 0 0 0 0 0 0 0 0 0 0 0 0 0 0 0 0 0 0 0 0 0 0 0 0 0 0 0 0 0 0 0 0 0
0 0 0 0 0 0 0 0 0 0 0 0 0 0 0 0 0 0 0 0 0 0 0 0 0 0 0 0 0 0 0 0 0 0 0 0 0 0 0 0 0 0 0
0 0 0 0 0 0 0 0 0 0 0 0 0 0 0 0 0 0 0 0 0 0 0 0 0 0 0 0 0 0 0 0 0 0 0 0 0 0 0 0 0 0 0
0 0 0 0 0 0 0 0 0 0 0 0 0 0 0 0 0 0 0 0 0 0 0 0 0 0 0 0 0 0 0 0 0 0 0 0 0 0 0 0 0 0 0
0 0 0 0 0 0 0 0 0 0 0 0 0 0 0 0 0 0 0 0 0 0 0 0 0 0 0 0 0 0 0 0 0 0 0 0 0 0 0 0 0 0 0
Wind_Speed
3 3 2 2 2 2 2 2 1 2 2 2 2 3 3 3 3 3 3 3 3 3 3 3 3 2 1 1 1 1 2 2 3 1 0 1 1 1 2 2 2 2 3
2 2 2 2 2 2 2 2 1 2 2 2 2 3 3 3 3 3 4 4 4 4 4 4 4 3 2 2 1 1 2 2 2 2 1 0 1 0 1 2 3 3 3
3 3 2 2 2 2 1 1 1 2 2 2 3 3 3 3 4 3 3 3 3 4 4 4 4 3 3 2 1 1 1 1 2 2 1 0 1 0 1 2 3 3 3
3 3 2 1 1 1 1 1 2 2 2 2 3 3 3 3 3 3 3 3 3 4 4 4 3 3 3 2 1 1 2 2 2 2 2 1 1 0 1 2 2 2 2
3 2 1 1 1 2 2 2 2 2 2 2 2 3 3 3 3 3 3 3 3 4 4 4 4 4 3 2 1 1 2 2 3 3 2 2 2 2 2 2 2 2 2
2 2 1 2 2 2 1 1 2 2 2 2 3 3 3 3 5 4 2 2 3 4 5 5 4 4 5 4 3 2 2 3 3 3 3 3 3 2 2 2 2 2 1
2 2 2 2 2 1 2 2 2 2 2 3 3 3 3 4 5 4 4 2 3 3 4 4 4 4 4 3 3 2 1 2 3 4 4 4 4 4 4 3 2 2 1
2 2 2 2 2 1 2 2 2 1 2 2 2 3 3 4 5 4 4 3 3 4 4 4 4 5 4 3 2 2 2 1 1 3 3 3 4 4 4 3 3 2 1
2 1 1 1 1 1 1 1 1 1 1 1 2 3 3 4 5 4 3 2 3 4 5 4 4 4 5 4 2 2 2 2 1 2 3 3 4 4 5 4 3 3 1
1 1 1 1 1 1 0 1 1 0 1 1 2 2 3 4 5 4 3 1 2 3 4 4 5 5 5 4 1 1 2 2 1 2 2 2 2 3 5 5 4 3 2
1 1 1 1 1 1 1 1 1 1 1 2 2 3 3 4 5 4 3 1 2 3 3 3 4 6 5 4 2 1 1 1 0 1 1 1 1 1 2 3 3 3 3
1 1 1 1 1 1 1 1 1 1 1 2 2 3 3 3 4 4 4 3 2 2 2 3 4 6 5 4 2 2 1 1 1 1 1 1 0 0 1 2 3 4 3
2 1 1 1 2 1 1 1 1 1 1 1 1 2 3 3 3 5 5 4 3 1 2 4 4 5 4 3 3 3 2 1 1 1 1 0 0 1 0 0 1 2 2
2 1 1 1 2 2 1 1 0 1 1 1 1 2 3 3 3 3 3 3 4 3 3 4 4 4 3 2 2 2 1 0 0 0 0 0 0 0 1 1 1 1 1
1 1 1 1 1 1 2 1 1 2 3 2 2 2 2 3 4 4 3 3 3 3 3 2 2 2 3 2 2 2 1 1 0 0 1 1 0 0 0 1 1 1 1
1 0 0 0 1 1 1 2 2 2 3 4 5 5 4 5 6 6 5 5 5 3 1 2 2 2 2 2 2 2 1 1 0 1 1 1 1 1 1 0 1 1 1
2 1 1 1 1 1 1 1 3 4 3 3 4 4 5 6 6 5 5 5 4 2 1 2 2 3 3 2 2 2 2 1 1 1 1 1 1 1 1 1 1 1 1
2 2 2 2 2 2 2 2 2 3 4 4 3 4 5 6 5 5 4 2 2 1 1 2 3 3 3 3 2 2 2 2 1 1 1 1 1 1 2 2 2 2 2
3 2 2 2 2 2 2 2 2 3 3 4 4 4 4 4 5 4 2 1 2 3 3 3 3 3 3 3 3 3 2 2 2 2 2 2 2 2 2 2 2 3 2
2 4 3 2 2 2 2 2 3 3 3 4 4 4 2 1 2 2 2 2 3 4 4 4 4 4 4 3 3 3 3 3 3 2 2 2 2 2 3 3 3 3 3
3 3 4 3 3 3 3 3 4 4 4 4 5 5 4 3 4 5 4 4 4 5 5 5 4 4 4 3 3 3 4 3 3 3 3 3 3 3 3 3 3 4 4
3 3 3 3 3 3 3 4 4 4 5 6 5 5 5 4 4 5 5 5 5 5 5 5 5 5 4 4 4 4 4 4 4 4 4 4 4 4 4 4 4 4 4
3 3 3 3 3 4 4 4 4 4 5 5 5 5 4 4 5 6 6 6 5 5 5 5 5 5 5 5 5 5 5 5 5 5 5 5 4 4 4 5 6 5 6
4 5 4 4 4 4 4 5 5 5 5 5 5 5 5 5 6 7 7 6 6 6 5 5 6 8 10 7 5 5 6 7 6 5 7 6 6 5 5 5 6 7 7
5 5 5 5 4 5 5 5 5 6 6 6 6 6 6 6 6 7 6 6 7 7 8 7 6 7 10 11 9 8 8 9 8 6 6 6 7 7 7 7 7 7 7
5 5 5 5 5 5 5 6 6 6 6 6 6 6 7 7 7 7 6 6 6 7 7 7 9 10 11 10 11 10 9 9 9 8 6 6 7 7 7 7 9 8 8
Wind_Direction
96 95 94 84 84 83 75 52 36 35 30 29 23 20 23 20 15 22 14 11 18 8 359 355 341 326 311 297 266 227 214 203 220 246 264 342 359 24 36 49 59 63 80
122 107 98 86 79 76 67 48 44 36 28 25 21 22 20 20 18 22 12 14 16 6 355 351 343 340 332 306 270 240 223 208 199 215 216 298 35 40 65 79 68 66 74
119 111 96 83 73 60 47 38 43 44 28 22 30 26 17 14 14 16 16 13 10 1 351 346 337 338 330 317 285 242 223 211 198 184 185 158 63 81 91 79 73 65 75
112 110 100 92 95 79 47 37 36 45 39 19 24 19 15 12 9 7 12 11 7 0 349 343 331 326 320 307 284 237 198 184 176 165 159 158 129 123 137 116 92 63 66
116 111 117 110 92 80 59 41 40 40 37 27 28 17 10 5 354 355 4 9 2 356 349 344 339 338 329 315 297 250 195 184 175 167 166 170 175 164 160 143 123 100 73
122 131 122 103 87 74 62 54 52 40 29 33 25 12 5 356 347 354 9 9 1 355 347 343 342 349 348 339 325 277 219 193 185 181 180 183 183 171 155 153 141 134 131
119 113 106 99 83 64 67 59 48 31 27 24 16 12 356 342 353 0 10 17 10 358 349 346 348 354 351 351 357 349 304 237 209 196 187 191 185 181 165 159 162 160 164
116 106 101 101 91 66 64 58 43 33 27 13 4 360 354 347 353 0 13 26 19 3 351 346 347 345 351 354 4 15 7 350 237 203 195 194 187 179 173 166 154 132 110
114 103 99 107 104 79 50 32 30 48 22 7 351 356 355 341 347 355 10 11 4 355 350 354 350 344 343 347 5 19 20 7 51 138 157 160 167 176 164 146 146 144 138
129 124 96 104 121 139 330 358 25 44 1 356 357 351 346 336 335 347 2 4 355 343 342 346 352 350 346 356 6 16 19 353 33 93 106 117 140 157 169 174 171 166 157
113 94 76 75 110 130 64 40 56 36 18 10 358 345 347 340 336 342 354 348 325 330 338 338 339 350 357 6 19 17 312 299 73 103 105 96 116 152 166 176 185 188 188
100 92 67 41 38 70 66 38 36 51 26 3 356 342 338 339 342 333 343 345 321 323 323 321 325 345 360 12 20 12 20 88 103 94 86 72 72 203 203 197 199 207 219
90 67 40 35 32 47 71 28 14 33 29 339 341 329 324 330 335 344 345 345 339 319 304 316 330 346 358 10 19 21 38 64 91 88 80 41 273 245 219 150 150 166 196
107 72 53 51 19 19 27 9 334 300 305 301 302 308 316 319 323 332 336 336 342 342 333 335 345 2 7 353 357 10 25 52 109 102 291 303 314 255 138 131 125 105 75
119 97 54 40 21 7 356 311 275 259 228 231 251 250 270 293 294 303 305 315 318 313 328 343 352 353 357 350 343 343 347 12 37 201 214 226 225 237 232 165 159 152 167
138 96 16 336 325 320 321 331 322 270 275 249 236 236 250 255 282 300 308 315 324 332 1 341 336 337 332 330 330 328 325 332 299 235 231 232 242 253 266 202 172 179 201
182 214 233 254 267 275 279 302 319 328 322 294 282 268 255 270 285 300 309 314 324 347 350 314 316 316 314 314 309 301 300 301 284 265 251 238 236 243 233 225 200 196 221
199 216 220 238 247 256 266 273 274 291 309 313 309 290 280 274 277 289 303 323 326 341 285 289 294 298 296 297 298 291 287 292 278 265 259 249 236 229 229 228 221 218 228
209 222 230 241 251 252 257 265 274 276 278 287 300 305 295 284 279 277 264 236 271 282 277 277 280 285 283 279 283 284 278 275 270 258 253 243 231 221 229 233 230 224 226
228 239 237 234 253 267 270 271 277 280 282 282 284 286 300 306 292 286 245 236 249 260 266 267 271 271 269 268 270 270 269 268 264 253 250 248 237 228 232 239 233 231 234
225 242 244 242 248 258 266 268 267 270 273 274 273 267 246 248 261 266 264 251 245 251 256 258 260 262 262 262 263 261 258 261 255 248 247 247 240 234 234 237 242 244 246
218 233 241 246 251 255 261 262 262 264 270 274 279 281 259 242 252 258 260 261 255 249 248 250 256 256 253 252 253 254 256 258 254 246 243 242 237 237 241 244 245 246 245
218 234 246 251 252 259 265 266 265 266 270 272 275 277 272 256 255 255 257 258 258 257 252 242 248 257 254 245 241 240 246 250 249 244 240 244 244 243 241 242 245 249 250
222 233 243 251 253 257 263 268 270 270 271 271 271 269 266 261 259 260 259 259 258 258 253 244 243 251 257 254 245 241 242 245 245 244 241 244 247 248 245 244 247 251 254
225 233 241 248 255 259 264 268 271 272 273 271 269 269 269 265 260 260 259 257 257 259 259 252 247 251 256 257 253 250 246 242 241 241 240 239 244 246 246 247 249 253 253
230 237 242 246 251 255 259 265 269 270 269 269 268 266 266 266 264 263 261 257 256 257 259 258 253 254 257 259 259 256 249 244 241 234 232 238 239 243 243 247 252 252 256